Regional Weather Roundup
Issued by NWS

Home | Current Version | Previous Version | Text Only | Print | Product List | Glossary On
Versions: 1 2 3 4 5 6 7 8 9 10 11 12 13 14 15 16 17 18 19 20 21 22 23 24 25 26 27 28 29 30 31 32 33 34 35 36 37 38 39 40 41 42 43 44 45 46 47 48 49 50
000
ASUS44 KJAN 011410
RWRMS

MISSISSIPPI HOURLY WEATHER ROUNDUP
NATIONAL WEATHER SERVICE JACKSON MS
900 AM CDT SUN MAY 01 2016

NOTE: "FAIR: INDICATES FEW OR NO CLOUDS BELOW 12,000 FEET WITH NO
SIGNIFICANT WEATHER AND/OR OBSTRUCTIONS TO VISIBILITY.

MSZ001>002-007>008-010>013-018>021-025>028-034>036-011500-
NORTHWEST MISSISSIPPI

CITY           SKY/WX    TMP DP  RH WIND       PRES   REMARKS
BATESVILLE     CLOUDY    68  66  94 S5        29.94R
CLEVELAND      CLOUDY    70  70 100 SE8       29.93R
GREENWOOD      CLOUDY    71  66  84 S5        29.95R
GREENVILLE     CLOUDY    71  67  87 SE7       29.92R
OLIVE BRANCH   PTSUNNY   66  66 100 S6        29.93S
OXFORD         CLOUDY    66  64  94 S5        29.97R FOG
TUNICA         CLOUDY    68  64  88 CALM      29.93S
WINONA         CLOUDY    67  66  96 CALM      29.95R
$$

MSZ003>006-009-014>017-022>024-029>033-037>039-011500-
NORTHEAST MISSISSIPPI

CITY           SKY/WX    TMP DP  RH WIND       PRES   REMARKS
COLUMBUS AFB   TSTM      66  66 100 VRB2      29.98R
CORINTH        CLOUDY    70  64  83 S3        29.95R
GOLDN TRIANGLE TSTM      66  63  88 SE7       29.97S
TUPELO         CLOUDY    69  63  81 SE5       29.96R
$$

MSZ040-058-011500-
CENTRAL MISSISSIPPI

CITY           SKY/WX    TMP DP  RH WIND       PRES   REMARKS
JACKSON INTL   CLOUDY    71  67  87 S6        29.93R
JACKSON HAWKNS PTSUNNY   71  67  87 S7        29.94R
MADISON        FAIR      70  66  88 S3        29.93R
MERIDIAN KEY   CLOUDY    72  69  90 S7        29.96R
MERIDIAN NAS   CLOUDY    69  66  90 SE3       29.97R
VICKSBURG TVR  CLOUDY    71  66  84 E6        29.92R
VICKSBURG VKS  CLOUDY    70  66  88 CALM      29.92R
$$

MSZ059>079-011500-
SOUTH MISSISSIPPI

CITY           SKY/WX    TMP DP  RH WIND       PRES   REMARKS
BROOKHAVEN     TSTM     N/A N/A N/A S13G20    29.95R
COLUMBIA       CLOUDY    72  72 100 SE8       29.98R FOG
HATTIESBURG    FOG       69  68  96 SE3       29.96R VSB 3/4
MCCOMB         LGT RAIN  71  71 100 CALM      29.96R FOG
NATCHEZ        CLOUDY    70  66  88 SE9G16    29.91R THUNDER
PINE BELT      CLOUDY    70  66  88 S5        29.96R VSB 3/4
$$

MSZ080>082-011500-
COASTAL MISSISSIPPI

CITY           SKY/WX    TMP DP  RH WIND       PRES   REMARKS
BAY ST LOUIS   CLOUDY    75  70  83 S10G17    29.94R FOG
BILOXI         CLOUDY    77  77 100 S9        29.95R
PASCAGOULA     CLOUDY    77  73  87 SE13      29.97R
GULFPORT       CLOUDY    77  73  87 SE13      29.94R
$$



USA.gov is the U.S. government's official web portal to all federal, state and local government web resources and services.